User: anonymous   Login
Location: Unspecified
(0.0000°N, 0.0000°E)
Time: 08:58:36
(UTC+00:00)
Language:

CUTE-I - Orbit

View from above orbital plane
View from above orbital plane
View from above satellite
View from above satellite

Ground track
Ground track

The orbit data is extracted from the following two-line orbital elements,

1 27844U 03031E   18016.89943168  .00000056  00000-0  44990-4 0  9997
2 27844  98.6883  27.7772 0010830  89.7516 270.4903 14.22089026754699
Epoch (UTC): 16 January 2018 21:35:10
Eccentricity: 0.0010830
inclination: 98.6883°
perigee height: 810 km
apogee height: 826 km
right ascension of ascending node: 27.7772°
argument of perigee: 89.7516°
revolutions per day: 14.22089026
mean anomaly at epoch: 270.4903°
orbit number at epoch: 75469

The dashed part of the orbit path shows where the satellite is in the earth's shadow,  

DLR